Location: Lussas
(44.6119°N, 4.4726°E)
Time: 13:27:34
(UTC+00:00)

SAR-Lupe-1 - Pass Details

Date: 18 April 2021
Orbit: 482 x 483 km, 98.2° (Epoch: 30 March)

Event Time Altitude Azimuth Distance (km) Brightness Sun altitude
Rises 19:35:04 0° 3° (N) 2,559 8.1 -11.4°
Reaches altitude 10° 19:37:17 10° 353° (N) 1,674 7.3 -11.7°
Maximum altitude 19:40:28 30° 291° (WNW) 886 6.2 -12.2°
Drops below altitude 10° 19:43:38 10° 228° (SW) 1,661 7.0 -12.7°
Sets 19:45:50 0° 218° (SW) 2,536 7.8 -13.0°
